Terminal Aerodrome Forecast
Issued by NWS

Home | Current Version | Previous Version | Graphics & Text | Print | Product List | Glossary On
Versions: 1 2 3 4 5 6 7 8 9 10 11 12 13 14 15 16 17 18 19 20 21 22
000
FTUS42 KMHX 151133
TAFISO
TAF
KISO 151133Z 1512/1612 00000KT 2SM BR BKN003
     FM151400 VRB03KT P6SM BKN070
     FM151800 VRB04KT P6SM -SHRA VCTS BKN035CB
     FM160300 00000KT P6SM BKN040
     FM160600 00000KT 3SM BR SCT003 BKN060
      AMD LTD TO CLD VIS AND WIND=

USA.gov is the U.S. government's official web portal to all federal, state and local government web resources and services.